Location: Cerbedi�res
(48.2182°N, 1.4849°W)
Time: 02:14:13
(UTC+00:00)

CZ-4B R/B - Pass Details

Date: 03 March 2021
Orbit: 388 x 454 km, 97.6° (Epoch: 17 April)

Event Time Altitude Azimuth Distance (km) Brightness Sun altitude
Rises 18:37:59 0° 9° (N) 2,294 4.9 -8.2°
Reaches altitude 10° 18:39:58 10° 6° (N) 1,435 3.9 -8.6°
Maximum altitude 18:42:58 57° 287° (WNW) 469 1.9 -9.0°
Drops below altitude 10° 18:45:59 10° 207° (SSW) 1,439 4.3 -9.6°
Sets 18:47:58 0° 203° (SSW) 2,301 5.3 -9.9°
